Regional Weather Roundup
Issued by NWS Goodland, KS

Home | Current Version | Previous Version | Graphics & Text | Print | Product List | Glossary On
Versions: 1 2 3 4 5 6 7 8 9 10 11 12 13 14 15 16 17 18 19 20 21 22 23 24 25 26 27 28 29 30 31 32 33 34 35 36 37 38 39 40 41 42 43 44 45 46 47 48 49 50
000
ASUS43 KGLD 062108
RWRGLD

GOODLAND FORECAST AREA HOURLY WEATHER ROUNDUP
NATIONAL WEATHER SERVICE GOODLAND KS
300 PM MDT WED MAY 06 2015

...OFFICIAL OBSERVATIONS...

CITY           SKY/WX    TMP DP  RH WIND       PRES   REMARKS
GOODLAND KS    PTSUNNY   63  54  72 S9        29.65F
HILL CITY KS   PTSUNNY   75  56  51 SW20G30   29.60F
IMPERIAL NEB   CLOUDY    62  52  69 S15       29.61S
MCCOOK NEB     CLOUDY    68  54  60 SW18G29   29.61F
AKRON CO       RAIN      54  53  97 W14       29.64R
BURLINGTON CO  CLOUDY    65  50  58 SW7       29.65F
LIMON CO       CLOUDY    64  47  53 NW10      29.71S
$$

...UNOFFICIAL OBSERVATIONS...

CITY           SKY/WX    TMP DP  RH WIND       PRES   REMARKS
COLBY KS       PTSUNNY   64  59  82 S13       29.65F
GOVE KS          N/A     72  32  23 MISG        N/A
LENORA KS        N/A     72  32  23 MISG        N/A
NORTON KS      MOSUNNY   75  48  38 SW14G22   29.58
SHARON SPRINGS   N/A     66  56  70 MISG        N/A
TRENTON NEB      N/A     66  32  28 S15         N/A
KIT CARSON CO    N/A     61  53  75 MISG        N/A
YUMA CO          N/A     57  53  86 W18G25      N/A
$$



USA.gov is the U.S. government's official web portal to all federal, state and local government web resources and services.